Flag for United Kingdom Weather past 2 weeks in York, England, United Kingdom

Now
66 °F

Partly sunny.


Feels Like: 66 °F
Forecast: 59 / 70 °F
Wind: 3 mph from Southwest

Location: Linton-On-Ouse

Current Time: Aug 1, 2014 at 5:52:16 PM

Latest Report: Aug 1, 2014 at 4:50 PM


Visibility: 4 mi

Pressure: 29.65 "Hg

Humidity: 88%

Dew point: 63 °F

Location of YorkLocation

Historic Weather in York — Graph

°F

York temperature yesterday

Maximum temperature yesterday: 72 °F (at 5:50 PM)
Minimum temperature yesterday: 59 °F (at 12:50 AM)
Average temperature yesterday: 64 °F

Past Weeks' High & Low Weather Summary

 TemperatureHumidityPressure
High82 °F (Jul 26, 2:50 PM)100% (Jul 19, 1:50 AM)30.30 "Hg (Jul 19, 1:50 AM)
Low52 °F (Jul 28, 4:50 AM)34% (Jul 24, 2:50 PM)29.65 "Hg (Aug 1, 4:50 PM)
Average65 °F76%30.00 "Hg
* Reported Jul 17 4:50 PM — Aug 1 4:50 PM, York, Weather by CustomWeather, © 2014

Note: Actual official high and low records may vary slightly from our data, if they occured in-between our weather recording intervals... More about our weather records

Advertising

York weather history for previous 24 hours

 ConditionsComfort  
Time TempWeatherWind HumidityBarometerVisibility
4:50 PM
Aug 1
66 °FPartly sunny.3 mph88%29.65 "Hg4 mi
3:50 PM63 °FRain. Cloudy.15 mph94%29.68 "Hg3 mi
2:50 PM66 °FLight rain. More clouds than sun.14 mph78%29.68 "HgN/A
1:50 PM70 °FBroken clouds.13 mph64%29.68 "HgN/A
12:50 PM68 °FLight rain. More clouds than sun.15 mph69%29.68 "HgN/A
11:50 AM66 °FLight rain. Cloudy.10 mph73%29.71 "HgN/A
10:50 AM66 °FLight rain. More clouds than sun.10 mph68%29.71 "HgN/A
10:18 AM66 °FMostly cloudy.10 mph68%29.71 "HgN/A
9:50 AM66 °FMore clouds than sun.9 mph68%29.71 "HgN/A
8:50 AM64 °FPartly sunny.7 mph78%29.74 "HgN/A
7:50 AM61 °FBroken clouds.7 mph83%29.74 "Hg5 mi
6:50 AM59 °FPartly sunny.6 mph88%29.74 "Hg5 mi
5:50 AM57 °FPassing clouds.7 mph94%29.74 "Hg5 mi
4:50 AM57 °FOvercast.3 mph94%29.74 "Hg5 mi
3:50 AM59 °FOvercast.5 mph88%29.77 "HgN/A
2:50 AM59 °FOvercast.2 mph88%29.77 "HgN/A
1:50 AM59 °FPassing clouds.3 mph88%29.77 "HgN/A
12:50 AM59 °FPassing clouds.1 mph88%29.77 "HgN/A
11:50 PM
Jul 31
61 °FPassing clouds.2 mph83%29.80 "HgN/A
10:50 PM61 °FPassing clouds.2 mph83%29.77 "HgN/A
9:50 PM63 °FPartly sunny.6 mph77%29.80 "HgN/A
8:50 PM64 °FPartly sunny.5 mph78%29.80 "HgN/A
7:50 PM68 °FBroken clouds.6 mph69%29.80 "HgN/A
6:50 PM70 °FScattered clouds.8 mph64%29.80 "HgN/A
5:50 PM72 °FBroken clouds.9 mph61%29.80 "HgN/A
Weather by CustomWeather, © 2014

See weather overviewHow to use our weather pages